TimeMDT,TemperatureF,Dew PointF,Humidity,Sea Level PressureIn,VisibilityMPH,Wind Direction,Wind SpeedMPH,Gust SpeedMPH,PrecipitationIn,Events,Conditions,WindDirDegrees,DateUTC
12:51 AM,64.0,12.0,13,29.94,10.0,Calm,Calm,-,N/A,,Overcast,0,2013-04-05 06:51:00
1:51 AM,63.0,10.0,13,29.92,10.0,Calm,Calm,-,N/A,,Overcast,0,2013-04-05 07:51:00
2:51 AM,61.0,10.0,13,29.91,10.0,WSW,3.5,-,N/A,,Overcast,240,2013-04-05 08:51:00
3:51 AM,60.1,9.0,13,29.91,10.0,Calm,Calm,-,N/A,,Overcast,0,2013-04-05 09:51:00
4:51 AM,61.0,10.9,14,29.90,10.0,Calm,Calm,-,N/A,,Overcast,0,2013-04-05 10:51:00
5:51 AM,60.1,16.0,18,29.91,10.0,Calm,Calm,-,N/A,,Overcast,0,2013-04-05 11:51:00
6:51 AM,60.1,18.0,20,29.91,10.0,Calm,Calm,-,N/A,,Mostly Cloudy,0,2013-04-05 12:51:00
7:51 AM,61.0,21.9,22,29.94,10.0,Calm,Calm,-,N/A,,Mostly Cloudy,0,2013-04-05 13:51:00
8:51 AM,64.9,25.0,22,29.92,10.0,SSE,8.1,-,N/A,,Mostly Cloudy,150,2013-04-05 14:51:00
9:51 AM,70.0,24.1,18,29.91,10.0,SSE,15.0,24.2,N/A,,Mostly Cloudy,150,2013-04-05 15:51:00
10:51 AM,73.9,23.0,15,29.89,10.0,SSE,13.8,23.0,N/A,,Overcast,150,2013-04-05 16:51:00
11:51 AM,78.1,19.9,11,29.86,10.0,South,16.1,25.3,N/A,,Mostly Cloudy,170,2013-04-05 17:51:00
12:51 PM,81.0,16.0,9,29.82,10.0,South,16.1,-,N/A,,Mostly Cloudy,180,2013-04-05 18:51:00
1:51 PM,82.9,14.0,8,29.78,10.0,WSW,11.5,24.2,N/A,,Mostly Cloudy,240,2013-04-05 19:51:00
2:51 PM,84.0,10.0,6,29.75,10.0,SSW,15.0,-,N/A,,Mostly Cloudy,200,2013-04-05 20:51:00
3:51 PM,82.9,8.1,6,29.72,10.0,WSW,21.9,27.6,N/A,,Mostly Cloudy,240,2013-04-05 21:51:00
4:51 PM,86.0,6.1,5,29.69,10.0,West,20.7,33.4,N/A,,Mostly Cloudy,260,2013-04-05 22:51:00
5:51 PM,84.9,6.1,5,29.69,10.0,SW,15.0,21.9,N/A,,Scattered Clouds,230,2013-04-05 23:51:00
6:51 PM,82.9,8.1,6,29.68,10.0,SW,12.7,-,N/A,,Scattered Clouds,230,2013-04-06 00:51:00
7:51 PM,81.0,6.1,6,29.69,10.0,West,12.7,27.6,N/A,,Partly Cloudy,270,2013-04-06 01:51:00
8:51 PM,79.0,12.9,8,29.70,10.0,West,13.8,23.0,N/A,,Partly Cloudy,260,2013-04-06 02:51:00
9:51 PM,73.9,12.9,10,29.73,10.0,SW,9.2,-,N/A,,Clear,230,2013-04-06 03:51:00
10:51 PM,75.9,14.0,10,29.73,10.0,West,16.1,-,N/A,,Partly Cloudy,280,2013-04-06 04:51:00
11:51 PM,75.9,17.1,11,29.72,10.0,West,19.6,25.3,N/A,,Partly Cloudy,280,2013-04-06 05:51:00